Location: Capannuccia
(43.7000°N, 11.3000°E)
Time: 09:03:17
(UTC+00:00)

STARLINK-1312 - Pass Details

Date: 06 October 2020
Orbit: 549 x 550 km, 53.0° (Epoch: 23 October)

Event Time Altitude Azimuth Distance (km) Brightness Sun altitude
Exits shadow 03:47:25 35° 237° (WSW) 902 4.2 -17.2°
Maximum altitude 03:49:07 87° 325° (NW) 554 3.5 -16.9°
Drops below altitude 10° 03:53:16 10° 55° (NE) 1,825 7.3 -16.2°
Sets 03:55:31 0° 56° (NE) 2,721 8.3 -15.8°
